FW7144 Weather Reports


time (UTC)temp
F
wind
direction
speed
knots
gust
knots
rain 1hr
in
rain 24hr
in
rain mn
in
humidity
%
barometer
mb
20260508105005 61 185 0.0 0.0 0.00 0.00 0.00 80 1020.5
20260508104405 61 185 0.0 0.0 0.00 0.00 0.00 80 1020.6
20260508103805 61 185 0.0 1.7 0.00 0.00 0.00 80 1020.5
20260508103217 61 193 0.0 0.0 0.00 0.00 0.00 80 1020.5
20260508102605 61 183 0.0 0.0 0.00 0.00 0.00 80 1020.5
20260508102005 61 169 0.0 0.0 0.00 0.00 0.00 80 1020.5
20260508101406 61 198 0.0 0.0 0.00 0.00 0.00 80 1020.5
20260508100805 61 172 0.0 0.0 0.00 0.00 0.00 79 1020.5
20260508100206 61 172 0.0 0.0 0.00 0.00 0.00 79 1020.5
20260508095605 62 275 0.0 4.3 0.00 0.00 0.00 78 1020.4
20260508095030 62 269 1.7 5.2 0.00 0.00 0.00 78 1020.3
20260508094418 62 265 0.0 4.3 0.00 0.00 0.00 77 1020.3
20260508093805 63 302 1.7 6.1 0.00 0.00 0.00 77 1020.3
20260508093206 63 267 1.7 5.2 0.00 0.00 0.00 77 1020.4
20260508092630 63 271 1.7 6.1 0.00 0.00 0.00 76 1020.5
20260508092006 63 276 2.6 6.1 0.00 0.00 0.00 76 1020.6
20260508091430 63 303 1.7 5.2 0.00 0.00 0.00 76 1020.7
20260508090830 63 232 1.7 5.2 0.00 0.00 0.00 76 1020.6
20260508090206 63 278 1.7 3.5 0.00 0.00 0.00 76 1020.7
20260508085605 63 268 0.0 4.3 0.00 0.00 0.00 75 1020.8
20260508085030 64 245 0.0 2.6 0.00 0.00 0.00 75 1020.8
20260508084405 64 248 0.0 5.2 0.00 0.00 0.00 74 1020.8
20260508083818 64 272 0.9 5.2 0.00 0.00 0.00 74 1020.8
20260508083205 64 264 1.7 4.3 0.00 0.00 0.00 74 1020.7
20260508082605 64 265 0.9 3.5 0.00 0.00 0.00 74 1020.6
20260508082005 63 256 0.0 3.5 0.00 0.00 0.00 75 1020.6
20260508081406 63 294 0.0 2.6 0.00 0.00 0.00 75 1020.6
20260508080805 63 248 0.0 1.7 0.00 0.00 0.00 76 1020.6
20260508080205 63 235 0.0 0.0 0.00 0.00 0.00 76 1020.7
20260508075606 63 346 0.0 0.0 0.00 0.00 0.00 75 1020.8
20260508075005 63 346 0.0 0.0 0.00 0.00 0.00 75 1020.7
20260508074406 63 346 0.0 1.7 0.00 0.00 0.00 75 1020.8
20260508073805 63 270 0.0 1.7 0.00 0.00 0.00 75 1020.8
20260508073205 63 77 0.0 1.7 0.00 0.00 0.00 75 1020.8
20260508072630 63 316 0.0 1.7 0.00 0.00 0.00 75 1020.9
20260508072006 63 342 0.0 1.7 0.00 0.00 0.00 75 1021.0
20260508071406 62 47 0.0 1.7 0.00 0.00 0.00 75 1021.0
20260508070806 62 61 0.0 3.5 0.00 0.00 0.00 75 1021.0
20260508070206 62 73 0.9 4.3 0.00 0.00 0.00 75 1021.1
20260508065605 62 94 2.6 2.6 0.00 0.00 0.00 75 1021.0
20260508065005 62 79 1.7 2.6 0.00 0.00 0.00 75 1021.1
20260508064405 62 73 0.0 2.6 0.00 0.00 0.00 76 1021.1
20260508063830 61 55 0.0 3.5 0.00 0.00 0.00 76 1021.1
20260508063206 61 74 2.6 3.5 0.00 0.00 0.00 77 1021.1
20260508062606 60 84 1.7 3.5 0.00 0.00 0.00 78 1021.1
20260508062005 59 140 0.0 2.6 0.00 0.00 0.00 79 1021.2
20260508061406 59 86 0.0 0.0 0.00 0.00 0.00 80 1021.1
20260508060806 59 110 0.0 0.0 0.00 0.00 0.00 81 1021.1
20260508060206 59 110 0.0 1.7 0.00 0.00 0.00 81 1021.1
20260508055605 58 76 0.0 0.0 0.00 0.00 0.00 82 1021.1
20260508055006 57 31 0.0 1.7 0.00 0.00 0.00 83 1021.2
20260508054405 57 87 0.0 2.6 0.00 0.00 0.00 83 1021.1
20260508053805 56 79 0.0 1.7 0.00 0.00 0.00 83 1021.2
20260508053230 57 53 0.0 1.7 0.00 0.00 0.00 83 1021.2
20260508052606 57 37 0.0 1.7 0.00 0.00 0.00 83 1021.1
20260508052006 57 352 0.0 2.6 0.00 0.00 0.00 82 1021.2
20260508051430 57 115 0.0 2.6 0.00 0.00 0.00 82 1021.2
20260508050805 58 144 0.0 1.7 0.00 0.00 0.00 82 1021.1
20260508050205 58 184 0.0 0.0 0.00 0.00 0.00 80 1021.1
20260508045605 58 325 0.0 0.0 0.00 0.00 0.00 80 1021.2
20260508045005 58 8 0.0 1.7 0.00 0.00 0.00 79 1021.1
20260508044406 59 17 0.0 1.7 0.00 0.00 0.00 80 1021.1
20260508043805 59 121 0.0 2.6 0.00 0.00 0.00 80 1021.0
20260508043205 58 105 0.0 1.7 0.00 0.00 0.00 80 1021.0
20260508042605 59 117 0.0 0.0 0.00 0.00 0.00 81 1021.2
20260508042006 59 0 0.0 0.0 0.00 0.00 0.00 81 1021.3
20260508041405 60 265 0.0 3.5 0.00 0.00 0.00 80 1021.1
20260508040805 60 144 0.0 2.6 0.00 0.00 0.00 80 1021.0
20260508040206 60 292 0.0 1.7 0.00 0.00 0.00 80 1021.0
20260508035606 61 53 0.0 0.0 0.00 0.00 0.00 80 1020.8
20260508035005 61 353 0.0 1.7 0.00 0.00 0.00 80 1020.6
20260508034405 62 5 0.0 2.6 0.00 0.00 0.00 79 1020.6
20260508033805 62 0 0.0 0.0 0.00 0.00 0.00 78 1020.5
20260508033205 63 65 0.0 2.6 0.00 0.00 0.00 77 1020.3
20260508032605 63 72 0.0 2.6 0.00 0.00 0.00 77 1020.3
20260508032006 63 84 0.0 0.0 0.00 0.00 0.00 77 1020.1
20260508031405 64 79 0.0 0.0 0.00 0.00 0.00 76 1020.2
20260508030806 64 0 0.0 1.7 0.00 0.00 0.00 75 1020.2
20260508030205 65 307 0.0 2.6 0.00 0.00 0.00 73 1020.2
20260508025605 66 160 0.0 5.2 0.00 0.00 0.00 72 1020.0
20260508025006 66 167 1.7 6.1 0.00 0.00 0.00 72 1019.8
20260508024406 67 166 0.9 3.5 0.00 0.00 0.00 73 1020.0
20260508023805 67 116 0.0 4.3 0.00 0.00 0.00 73 1019.9
20260508023217 67 111 2.6 5.2 0.00 0.00 0.00 73 1020.1
20260508022630 67 108 0.9 5.2 0.00 0.00 0.00 72 1020.1
20260508022005 67 171 0.0 6.1 0.00 0.00 0.00 71 1019.8
20260508021430 67 166 1.7 2.6 0.00 0.00 0.00 70 1020.0
20260508020806 67 96 0.0 2.6 0.00 0.00 0.00 71 1019.9
20260508020230 66 93 0.0 4.3 0.00 0.00 0.00 71 1019.6
20260508015605 67 95 1.7 6.1 0.00 0.00 0.00 70 1019.6
20260508015005 67 89 3.5 7.0 0.00 0.00 0.00 70 1019.7
20260508014406 68 103 2.6 7.0 0.00 0.00 0.00 70 1019.7
20260508013806 68 144 0.0 6.1 0.00 0.00 0.00 69 1019.7
20260508013205 68 149 1.7 5.2 0.00 0.00 0.00 69 1019.8
20260508012605 69 156 0.9 6.1 0.00 0.00 0.00 67 1019.7
20260508012006 69 148 0.9 7.8 0.00 0.00 0.00 66 1019.5
20260508011405 69 124 0.0 7.0 0.00 0.00 0.00 64 1019.6
20260508010806 70 281 1.7 7.8 0.00 0.00 0.00 61 1019.5
20260508010205 70 151 1.7 9.6 0.00 0.00 0.00 63 1019.5
20260508005605 71 169 2.6 5.2 0.00 0.00 0.00 62 1019.5
20260508005005 71 121 0.0 6.1 0.00 0.00 0.00 60 1019.2
20260508004405 72 187 1.7 6.1 0.00 0.00 0.00 59 1019.2
20260508003830 74 171 0.0 4.3 0.00 0.00 0.00 55 1019.3
20260508003230 74 275 0.0 6.1 0.00 0.00 0.00 54 1019.0
20260508002606 75 174 0.0 3.5 0.00 0.00 0.00 54 1018.5
20260508002007 75 233 0.0 1.7 0.00 0.00 0.00 55 1018.7
20260508001417 75 182 0.0 5.2 0.00 0.00 0.00 54 1018.8
20260508000830 75 215 2.6 7.0 0.00 0.00 0.00 55 1018.7
20260508000205 75 210 0.0 3.5 0.00 0.00 0.00 55 1018.9
20260507235605 75 185 0.0 1.7 0.00 0.00 0.00 55 1018.9
20260507235006 76 125 0.0 5.2 0.00 0.00 0.00 52 1018.7
20260507234418 76 183 0.0 13.9 0.00 0.00 0.00 51 1018.5
20260507233805 76 224 2.6 11.3 0.00 0.00 0.00 51 1018.5
20260507233206 76 198 1.7 13.9 0.00 0.00 0.00 52 1018.2
20260507232606 77 206 1.7 11.3 0.00 0.00 0.00 51 1018.1
20260507232005 78 209 3.5 14.8 0.00 0.00 0.00 49 1017.8
20260507231406 81 120 2.6 14.8 0.00 0.00 0.00 43 1017.7
20260507230805 81 111 3.5 14.8 0.00 0.00 0.00 42 1017.7
20260507230206 81 120 9.6 17.4 0.00 0.00 0.00 42 1017.8
20260507225605 82 121 7.0 14.8 0.00 0.00 0.00 43 1017.7
20260507225005 80 112 8.7 15.6 0.00 0.00 0.00 42 1017.7
20260507224407 82 111 7.8 16.5 0.00 0.00 0.00 41 1017.7
20260507223805 81 106 11.3 17.4 0.00 0.00 0.00 42 1017.6
20260507223205 80 98 7.8 19.1 0.00 0.00 0.00 43 1017.6
20260507222618 80 98 9.6 18.2 0.00 0.00 0.00 42 1017.6
20260507222005 80 94 9.6 18.2 0.00 0.00 0.00 40 1017.7
20260507221431 82 103 8.7 19.1 0.00 0.00 0.00 40 1017.7
20260507220818 83 101 7.8 24.3 0.00 0.00 0.00 38 1017.8
20260507220230 85 85 4.3 13.0 0.00 0.00 0.00 32 1017.8
20260507215606 83 106 7.0 17.4 0.00 0.00 0.00 34 1017.8
20260507215005 82 116 7.0 16.5 0.00 0.00 0.00 37 1017.8
20260507214405 83 99 7.8 12.2 0.00 0.00 0.00 34 1017.9
20260507213843 81 82 5.2 11.3 0.00 0.00 0.00 41 1018.1
20260507213205 82 97 6.1 13.0 0.00 0.00 0.00 38 1018.1
20260507212605 83 89 7.0 7.8 0.00 0.00 0.00 37 1018.1
20260507212005 84 79 1.7 6.1 0.00 0.00 0.00 24 1018.3
20260507211405 85 266 1.7 2.6 0.00 0.00 0.00 29 1018.2
20260507210806 84 161 0.0 3.5 0.00 0.00 0.00 27 1018.3
20260507210206 83 294 0.0 13.9 0.00 0.00 0.00 29 1018.4
20260507205605 84 89 5.2 7.0 0.00 0.00 0.00 29 1018.4
20260507205005 83 140 0.0 15.6 0.00 0.00 0.00 31 1018.5
20260507204406 82 95 8.7 19.1 0.00 0.00 0.00 34 1018.6
20260507203805 83 117 7.8 15.6 0.00 0.00 0.00 37 1018.7
20260507203205 85 67 3.5 7.8 0.00 0.00 0.00 31 1018.9
20260507202605 87 334 0.0 7.0 0.00 0.00 0.00 20 1019.1
20260507202030 84 277 1.7 10.4 0.00 0.00 0.00 23 1019.1
20260507201405 85 347 1.7 11.3 0.00 0.00 0.00 20 1019.2
20260507200806 88 343 2.6 13.0 0.00 0.00 0.00 19 1019.3
20260507200206 88 354 2.6 7.0 0.00 0.00 0.00 18 1019.3
20260507195605 87 331 0.0 12.2 0.00 0.00 0.00 19 1019.4
20260507195005 88 30 1.7 19.1 0.00 0.00 0.00 18 1019.4
20260507194405 86 314 2.6 10.4 0.00 0.00 0.00 20 1019.6
20260507193805 84 0 1.7 12.2 0.00 0.00 0.00 21 1019.7
20260507193206 84 295 0.0 7.8 0.00 0.00 0.00 19 1019.9
20260507192605 86 291 0.0 10.4 0.00 0.00 0.00 20 1019.9
20260507192005 87 285 1.7 13.0 0.00 0.00 0.00 17 1020.0
20260507191405 87 317 3.5 11.3 0.00 0.00 0.00 19 1020.2
20260507190830 85 0 1.7 13.9 0.00 0.00 0.00 20 1020.2
20260507190205 85 350 2.6 7.8 0.00 0.00 0.00 21 1020.3
20260507185605 84 286 0.0 12.2 0.00 0.00 0.00 23 1020.3
20260507185005 84 354 2.6 9.6 0.00 0.00 0.00 21 1020.3
20260507184405 83 291 0.0 12.2 0.00 0.00 0.00 23 1020.5
20260507183805 83 335 2.6 11.3 0.00 0.00 0.00 21 1020.5
20260507183205 83 4 0.0 14.8 0.00 0.00 0.00 23 1020.6
20260507182606 86 235 0.9 13.9 0.00 0.00 0.00 26 1020.6
20260507182005 86 314 0.0 7.8 0.00 0.00 0.00 21 1020.7
20260507181431 85 347 0.9 11.3 0.00 0.00 0.00 21 1020.9
20260507180817 85 1 0.9 13.9 0.00 0.00 0.00 22 1020.8
20260507180230 84 83 0.0 11.3 0.00 0.00 0.00 20 1021.0
20260507175606 84 321 2.6 13.0 0.00 0.00 0.00 23 1021.1
20260507175005 84 349 3.5 11.3 0.00 0.00 0.00 26 1021.2
20260507174405 84 346 3.5 13.9 0.00 0.00 0.00 25 1021.2
20260507173817 83 305 3.5 11.3 0.00 0.00 0.00 25 1021.1
20260507173205 83 327 3.5 8.7 0.00 0.00 0.00 28 1021.1
20260507172605 81 257 2.6 3.5 0.00 0.00 0.00 29 1021.3
20260507172006 81 110 0.0 7.8 0.00 0.00 0.00 31 1021.4
20260507171406 82 1 0.0 9.6 0.00 0.00 0.00 34 1021.4
20260507170805 81 354 0.0 10.4 0.00 0.00 0.00 31 1021.5
20260507170205 80 240 0.0 7.8 0.00 0.00 0.00 30 1021.5
20260507165605 81 318 0.0 7.0 0.00 0.00 0.00 35 1021.6
20260507165005 81 260 1.7 6.1 0.00 0.00 0.00 32 1021.6
20260507164443 81 312 0.0 7.8 0.00 0.00 0.00 35 1021.7
20260507163830 80 283 2.6 7.0 0.00 0.00 0.00 36 1021.7
20260507163206 78 155 0.0 6.1 0.00 0.00 0.00 35 1021.8
20260507162606 79 265 1.7 6.1 0.00 0.00 0.00 35 1021.9
20260507162005 79 249 0.0 4.3 0.00 0.00 0.00 37 1022.0
20260507161405 77 147 0.0 7.0 0.00 0.00 0.00 35 1022.0
20260507160806 77 148 0.0 4.3 0.00 0.00 0.00 39 1022.1
20260507160205 78 276 0.0 9.6 0.00 0.00 0.00 41 1022.1
20260507155605 78 316 0.0 4.3 0.00 0.00 0.00 42 1022.1
20260507155005 76 264 0.0 6.1 0.00 0.00 0.00 41 1022.1
20260507154406 76 308 1.7 7.8 0.00 0.00 0.00 45 1022.1
20260507153805 76 296 1.7 7.0 0.00 0.00 0.00 45 1022.2
20260507153205 75 225 1.7 5.2 0.00 0.00 0.00 45 1022.2
20260507152605 76 282 0.0 5.2 0.00 0.00 0.00 44 1022.3
20260507152005 76 239 0.0 1.7 0.00 0.00 0.00 47 1022.3
20260507151405 75 252 0.0 5.2 0.00 0.00 0.00 49 1022.3
20260507150805 75 309 0.0 2.6 0.00 0.00 0.00 49 1022.3
20260507150205 74 304 0.0 3.5 0.00 0.00 0.00 51 1022.4
20260507145605 73 260 0.0 5.2 0.00 0.00 0.00 53 1022.4
20260507145018 74 235 1.7 2.6 0.00 0.00 0.00 53 1022.5
20260507144405 73 172 0.0 5.2 0.00 0.00 0.00 53 1022.5
20260507143805 73 154 0.0 1.7 0.00 0.00 0.00 55 1022.4
20260507143205 72 288 0.0 3.5 0.00 0.00 0.00 58 1022.4
20260507142630 71 66 0.0 2.6 0.00 0.00 0.00 57 1022.5
20260507142006 70 76 0.0 1.7 0.00 0.00 0.00 57 1022.6
20260507141405 71 81 0.0 0.0 0.00 0.00 0.00 58 1022.6
20260507140805 69 354 0.0 0.0 0.00 0.00 0.00 62 1022.6
20260507140205 67 0 0.0 0.0 0.00 0.00 0.00 64 1022.6
20260507135606 66 81 0.0 0.0 0.00 0.00 0.00 67 1022.6
20260507135006 65 104 0.0 2.6 0.00 0.00 0.00 69 1022.6
20260507134405 64 118 0.0 2.6 0.00 0.00 0.00 71 1022.5
20260507133805 63 137 0.0 2.6 0.00 0.00 0.00 72 1022.5
20260507133205 62 142 0.0 3.5 0.00 0.00 0.00 73 1022.5
20260507132605 61 145 0.0 3.5 0.00 0.00 0.00 75 1022.5
20260507132006 60 161 0.0 3.5 0.00 0.00 0.00 76 1022.4
20260507131405 59 141 0.0 2.6 0.00 0.00 0.00 77 1022.4
20260507130805 58 137 0.0 1.7 0.00 0.00 0.00 78 1022.5
20260507130205 57 123 0.0 2.6 0.00 0.00 0.00 80 1022.5
20260507125630 56 123 1.7 3.5 0.00 0.00 0.00 82 1022.5
20260507125005 55 130 2.6 3.5 0.00 0.00 0.00 82 1022.4
20260507124406 54 117 0.9 2.6 0.00 0.00 0.00 83 1022.3
20260507123830 53 93 0.0 0.0 0.00 0.00 0.00 83 1022.3
20260507123205 51 93 0.0 1.7 0.00 0.00 0.00 83 1022.2
20260507122605 51 93 0.0 3.5 0.00 0.00 0.00 82 1022.1
20260507122005 51 96 1.7 5.2 0.00 0.00 0.00 82 1022.1
20260507121405 53 103 3.5 3.5 0.00 0.00 0.00 82 1022.1
20260507120805 52 90 0.9 2.6 0.00 0.00 0.00 82 1022.1
20260507120205 53 87 2.6 2.6 0.00 0.00 0.00 83 1022.1
20260507115605 52 104 0.9 2.6 0.00 0.00 0.00 81 1022.1
20260507115005 53 101 1.7 3.5 0.00 0.00 0.00 82 1022.0
20260507114405 53 84 1.7 2.6 0.00 0.00 0.00 82 1022.1
20260507113806 52 49 0.0 1.7 0.00 0.00 0.00 82 1022.0
20260507113205 52 49 0.0 2.6 0.00 0.00 0.00 81 1022.0
20260507112605 52 49 0.0 2.6 0.00 0.00 0.00 81 1021.9
20260507112005 53 78 2.6 2.6 0.00 0.00 0.00 82 1021.9
20260507111405 54 78 0.0 5.2 0.00 0.00 0.00 80 1021.9
20260507110805 54 85 3.5 4.3 0.00 0.00 0.00 81 1021.9
20260507110205 54 96 0.0 1.7 0.00 0.00 0.00 81 1021.8
20260507105618 53 101 1.7 1.7 0.00 0.00 0.00 80 1021.8